Flag for Italy Weather past 2 weeks in Verona, Italy

Now
79 °F

Partly sunny.


Feels Like: 80 °F
Forecast: 69 / 90 °F
Wind: 7 mph from Southeast

Location: Verona / Villafranca

Current Time: Jul 28, 2015 at 11:00:10 AM

Latest Report: Jul 28, 2015 at 10:20 AM


Visibility: N/A

Pressure: 29.74 "Hg

Humidity: 58%

Dew point: 63 °F

Location of VeronaLocation

Historic Weather in Verona — Graph

°F

Verona temperature yesterday

Maximum temperature yesterday: 90 °F (at 4:50 PM)
Minimum temperature yesterday: 66 °F (at 4:50 AM)
Average temperature yesterday: 78 °F

Past Weeks' High & Low Weather Summary

 TemperatureHumidityPressure
High99 °F (Jul 21, 4:50 PM)100% (Jul 27, 4:50 AM)30.07 "Hg (Jul 27, 4:50 AM)
Low66 °F (Jul 27, 4:50 AM)27% (Jul 19, 5:20 PM)29.62 "Hg (Jul 27, 7:20 PM)
Average84 °F57%29.89 "Hg
* Reported Jul 13 9:20 AM — Jul 28 9:50 AM, Verona, Weather by CustomWeather, © 2015

Note: Actual official high and low records may vary slightly from our data, if they occured in-between our weather recording intervals... More about our weather records

Advertising

Verona weather history for previous 24 hours

 ConditionsComfort  
Time TempWeatherWind HumidityBarometerVisibility
9:50 AM
Tue, Jul 28
79 °FPartly sunny.8 mph58%29.74 "HgN/A
9:20 AM77 °FPartly sunny.8 mph61%29.74 "HgN/A
8:50 AM77 °FPartly sunny.8 mph61%29.74 "HgN/A
8:20 AM75 °FPartly sunny.9 mph65%29.74 "HgN/A
7:50 AM75 °FPartly sunny.8 mph65%29.74 "HgN/A
7:20 AM73 °FPassing clouds.7 mph69%29.74 "HgN/A
6:50 AM72 °FPassing clouds.7 mph73%29.74 "HgN/A
6:20 AM72 °FPassing clouds.6 mph73%29.74 "HgN/A
5:50 AM73 °FClear.9 mph69%29.71 "Hg10 mi
5:20 AM73 °FClear.9 mph69%29.71 "Hg10 mi
4:50 AM73 °FClear.7 mph69%29.71 "Hg10 mi
4:20 AM73 °FPassing clouds.7 mph74%29.71 "HgN/A
3:50 AM73 °FPassing clouds.7 mph78%29.71 "HgN/A
3:20 AM73 °FPassing clouds.5 mph78%29.71 "HgN/A
2:50 AM72 °FClear.5 mph88%29.71 "Hg10 mi
2:20 AM73 °FClear.6 mph83%29.71 "Hg10 mi
1:50 AM72 °FClear.6 mph88%29.71 "Hg10 mi
1:20 AM73 °FClear.5 mph89%29.71 "Hg10 mi
12:50 AM75 °FClear.6 mph83%29.71 "Hg10 mi
12:20 AM75 °FClear.6 mph83%29.71 "Hg10 mi
11:50 PM
Mon, Jul 27
75 °FClear.7 mph83%29.71 "Hg10 mi
11:20 PM77 °FClear.7 mph79%29.71 "Hg10 mi
10:50 PM77 °FPassing clouds.8 mph79%29.68 "HgN/A
10:20 PM79 °FPassing clouds.8 mph70%29.68 "HgN/A
9:50 PM79 °FPassing clouds.6 mph61%29.68 "HgN/A
9:20 PM79 °FPassing clouds.6 mph70%29.65 "HgN/A
8:50 PM82 °FPassing clouds.2 mph62%29.65 "HgN/A
8:20 PM86 °FPassing clouds.3 mph52%29.65 "HgN/A
7:50 PM88 °FPassing clouds.3 mph49%29.62 "HgN/A
7:20 PM88 °FSunny.7 mph46%29.62 "Hg10 mi
6:50 PM90 °FSunny.8 mph43%29.65 "Hg10 mi
6:20 PM90 °FSunny.8 mph43%29.65 "Hg10 mi
5:50 PM88 °FPassing clouds.9 mph46%29.65 "HgN/A
5:20 PM90 °FPassing clouds.10 mph41%29.65 "HgN/A
4:50 PM90 °FPassing clouds.10 mph41%29.65 "HgN/A
4:20 PM88 °FPassing clouds.8 mph40%29.65 "HgN/A
3:50 PM88 °FPassing clouds.9 mph38%29.65 "HgN/A
3:20 PM88 °FPassing clouds.9 mph43%29.65 "HgN/A
2:50 PM86 °FPassing clouds.10 mph49%29.65 "HgN/A
2:20 PM86 °FPassing clouds.8 mph49%29.65 "HgN/A
1:50 PM84 °FPassing clouds.9 mph51%29.68 "HgN/A
1:20 PM84 °FPassing clouds.7 mph55%29.68 "HgN/A
12:50 PM82 °FPassing clouds.9 mph55%29.68 "HgN/A
12:20 PM81 °FPassing clouds.6 mph58%29.71 "HgN/A
11:50 AM81 °FPassing clouds.5 mph58%29.71 "HgN/A
11:20 AM77 °FPassing clouds.6 mph65%29.71 "HgN/A
Weather by CustomWeather, © 2015

See weather overviewHow to use our weather pages